[[{"header":{"parameterUnit":"m.s-1","parameterCategory":1,"la1":30.2991,"la2":30.254,"lo1":-89.0895,"lo2":-89.0444,"dy":0.0017,"dx":0.0017,"nx":28,"ny":28,"refTime":"2023-07-22T21:00:00:Z","depth":0,"parameterNumber":2,"parameterNumberName":"U-component_of_WINDS"},"data":[0,0,0,0,0,0,0,0,0,0,0,0,0,0,0,0,0,0,0,0,0,0,0,0,0,0,0,0,0,0,0,0,0,0,0,0,0,0,0,0,0,0,0,0,0,0,0,0,0,0,0,0,0,0,0,0,0,0,-1.394,-1.3939,0,-1.3898,-1.3897,-1.3897,-1.382,-1.3818,-1.3817,-1.3815,-1.3774,-1.3775,-1.3775,0,0,0,0,0,0,0,0,0,0,0,0,0,-1.3956,-1.3956,-1.394,-1.3939,-1.3939,-1.3898,-1.3897,-1.3896,-1.382,-1.3818,-1.3816,-1.3815,-1.3774,-1.3775,-1.3775,0,0,0,0,0,0,0,0,0,0,0,0,0,-1.3935,-1.3956,-1.394,-1.3896,-1.3891,-1.3898,-1.3897,-1.3896,-1.382,-1.3818,-1.3816,-1.3814,-1.3774,-1.3775,-1.3775,-1.3822,0,0,-1.3776,-1.3777,0,0,0,0,0,0,0,0,-1.3936,-1.3935,-1.3903,-1.3899,-1.3894,-1.3862,-1.3888,-1.3871,-1.3821,-1.3847,-1.3815,-1.3813,-1.3805,-1.3803,-1.38,-1.382,-1.3818,-1.3776,-1.3777,-1.3777,-1.3777,0,0,0,0,0,0,0,-1.3938,-1.3936,-1.3923,-1.3902,-1.3897,-1.3878,-1.3873,-1.3884,-1.3839,-1.3845,-1.3839,-1.3835,-1.3803,-1.38,-1.3799,-1.3818,-1.3776,-1.3777,-1.3777,-1.3777,-1.3873,-1.3876,0,0,0,0,0,0,-1.3946,-1.3938,-1.3924,-1.3922,-1.391,-1.388,-1.3874,-1.3874,-1.3839,-1.3832,-1.3837,-1.3832,-1.38,-1.3798,-1.3797,-1.3849,-1.3777,-1.3777,-1.3778,-1.3871,-1.3874,-1.3876,0,0,0,0,0,0,-1.3946,-1.3945,-1.3926,-1.3928,-1.3924,-1.3882,-1.3883,-1.3875,-1.3872,-1.3833,-1.3825,-1.3842,-1.3798,-1.3796,-1.3816,-1.3846,-1.3777,-1.3778,-1.3868,-1.3872,-1.3875,-1.3954,0,0,0,0,0,0,-1.3947,-1.3946,-1.3963,-1.3929,-1.3925,-1.3946,-1.3885,-1.3875,-1.3872,-1.3865,-1.3836,-1.3829,-1.3797,-1.3816,-1.3816,-1.3846,-1.3778,-1.3866,-1.387,-1.3874,-1.3948,-1.396,-1.3969,0,0,0,0,0,-1.3948,-1.3987,-1.3964,-1.3963,-1.3945,-1.3948,-1.3945,-1.3906,-1.3875,-1.3892,-1.3867,-1.383,-1.3843,-1.3818,-1.3819,-1.3848,-1.3863,-1.3869,-1.3874,-1.3944,-1.3957,-1.3969,0,0,0,0,0,0,-1.4027,-1.3982,-1.3956,-1.3985,-1.3971,-1.3935,-1.3955,-1.3922,-1.3916,-1.391,-1.3862,-1.3857,-1.3883,-1.3867,-1.3841,-1.3892,-1.3847,-1.3853,-1.39,-1.3913,-1.3923,-1.3926,-1.3779,0,0,0,0,0,-1.4047,-1.4053,-1.4014,-1.4044,-1.4038,-1.3998,-1.3998,-1.3969,-1.3952,-1.3946,-1.3922,-1.3908,-1.3908,-1.391,-1.3909,-1.3946,-1.3938,-1.3966,-1.3977,-1.3986,-1.3991,-1.4009,-1.4021,-1.3893,-1.3893,-1.3893,0,0,-1.409,-1.4067,-1.4073,-1.4059,-1.4044,-1.4051,-1.3993,-1.4003,-1.4008,-1.3947,-1.3964,-1.3947,-1.3927,-1.3956,-1.3967,-1.3944,-1.4024,-1.3992,-1.3999,-1.4,-1.4015,-1.4027,-1.4038,-1.3897,-1.3896,-1.3896,0,0,-1.4172,-1.4155,-1.4177,-1.4164,-1.4142,-1.4115,-1.4121,-1.4089,-1.4075,-1.4091,-1.4045,-1.4051,-1.4053,-1.4041,-1.4036,-1.4113,-1.4078,-1.4114,-1.4168,-1.4186,-1.4196,-1.4205,-1.4231,-1.4242,-1.4119,-1.4119,-1.4119,0,-1.4229,-1.4237,-1.4194,-1.4206,-1.4201,-1.4146,-1.4168,-1.4157,-1.4137,-1.4135,-1.4109,-1.411,-1.4094,-1.4118,-1.4137,-1.4135,-1.4139,-1.4116,-1.4198,-1.4206,-1.4214,-1.4239,-1.4249,-1.4124,-1.4123,-1.4123,-1.4122,0,-1.4307,-1.4313,-1.4334,-1.4314,-1.4312,-1.433,-1.429,-1.4292,-1.4264,-1.424,-1.4257,-1.4235,-1.4228,-1.4232,-1.4204,-1.4253,-1.4239,-1.4206,-1.4161,-1.4231,-1.4254,-1.4263,-1.413,-1.4128,-1.4127,-1.4126,0,0,-1.4437,-1.4393,-1.4401,-1.4391,-1.4363,-1.4367,-1.4383,-1.4375,-1.4378,-1.4365,-1.4377,-1.438,-1.435,-1.4343,-1.4314,-1.433,-1.4392,-1.4295,-1.4294,-1.4314,-1.4443,-1.4467,-1.4479,-1.4369,-1.4371,-1.4372,-1.4444,0,-1.4512,-1.4535,-1.4496,-1.4528,-1.4533,-1.4481,-1.4494,-1.4479,-1.4457,-1.4458,-1.4434,-1.4437,-1.4397,-1.4393,-1.4406,-1.4382,-1.4417,-1.4376,-1.4379,-1.438,-1.4385,-1.4491,-1.4517,-1.4586,-1.4453,-1.4454,-1.4456,0,-1.4603,-1.4594,-1.4626,-1.4595,-1.4596,-1.4608,-1.4598,-1.46,-1.4581,-1.4564,-1.4557,-1.4522,-1.4535,-1.4492,-1.4509,-1.4482,-1.4481,-1.447,-1.4471,-1.447,-1.4422,-1.4492,-1.4607,-1.4617,-1.4469,-1.4468,-1.4467,0,-1.4693,-1.469,-1.4708,-1.4701,-1.4666,-1.4676,-1.4662,-1.4641,-1.4639,-1.463,-1.4628,-1.4621,-1.4617,-1.4613,-1.4578,-1.4549,-1.4599,-1.4553,-1.4586,-1.4587,-1.4598,-1.4598,-1.4715,-1.4599,-1.4599,-1.4599,-1.4598,0,-1.4781,-1.4803,-1.4748,-1.476,-1.4782,-1.4738,-1.4762,-1.4743,-1.4725,-1.4732,-1.4687,-1.4694,-1.4647,-1.465,-1.4622,-1.4641,-1.464,-1.4626,-1.4619,-1.463,-1.4632,-1.4628,-1.4622,-1.4601,-1.4601,-1.46,-1.46,0,-1.4886,-1.4851,-1.4867,-1.4832,-1.4824,-1.4842,-1.4812,-1.4821,-1.4797,-1.4806,-1.4806,-1.4767,-1.4768,-1.4732,-1.4726,-1.4707,-1.4738,-1.4722,-1.4744,-1.4738,-1.4773,-1.477,-1.4891,-1.4904,-1.4781,-1.4783,-1.4784,0,-1.4944,-1.4959,-1.4925,-1.4926,-1.4914,-1.4917,-1.4914,-1.4871,-1.487,-1.485,-1.4862,-1.4859,-1.4854,-1.4857,-1.4829,-1.4824,-1.4807,-1.485,-1.4806,-1.4817,-1.4807,-1.4806,-1.4807,-1.4859,-1.4861,-1.4862,-1.4863,0,-1.505,-1.5032,-1.5029,-1.502,-1.5017,-1.5008,-1.4997,-1.5,-1.4954,-1.4955,-1.4955,-1.4951,-1.4944,-1.4942,-1.4931,-1.4917,-1.4883,-1.4877,-1.4884,-1.4896,-1.4907,-1.4901,-1.4768,-1.4874,-1.4873,-1.4872,-1.4872,-1.4871,-1.5133,-1.5143,-1.5121,-1.5119,-1.5106,-1.5096,-1.5103,-1.5078,-1.5077,-1.5068,-1.5043,-1.5047,-1.5027,-1.501,-1.4999,-1.5001,-1.498,-1.4991,-1.4993,-1.4996,-1.5002,-1.4908,-1.4999,-1.4999,-1.4999,-1.4998,-1.4998,0,-1.5236,-1.5219,-1.5217,-1.5202,-1.5201,-1.5168,-1.5153,-1.5154,-1.5158,-1.5142,-1.5138,-1.5138,-1.5135,-1.5107,-1.5101,-1.5108,-1.5092,-1.5108,-1.5107,-1.5104,-1.5022,-1.5016,-1.5121,-1.5121,-1.5121,-1.5121,-1.5121,-1.5121,-1.5289,-1.5305,-1.5284,-1.5294,-1.5277,-1.5279,-1.5274,-1.5264,-1.5251,-1.5253,-1.525,-1.5231,-1.521,-1.5202,-1.5199,-1.519,-1.519,-1.5211,-1.5197,-1.5122,-1.511,-1.5098,-1.5092,-1.5211,-1.5212,-1.5278,-1.5279,-1.528]},{"header":{"parameterUnit":"m.s-1","parameterCategory":1,"la1":30.2991,"la2":30.254,"lo1":-89.0895,"lo2":-89.0444,"dy":0.0017,"dx":0.0017,"nx":28,"ny":28,"refTime":"2023-07-22T21:00:00:Z","depth":0,"parameterNumber":3,"parameterNumberName":"V-component_of_WINDS"},"data":[0,0,0,0,0,0,0,0,0,0,0,0,0,0,0,0,0,0,0,0,0,0,0,0,0,0,0,0,0,0,0,0,0,0,0,0,0,0,0,0,0,0,0,0,0,0,0,0,0,0,0,0,0,0,0,0,0,0,0.5559,0.5559,0,0.5605,0.5606,0.5607,0.5603,0.5602,0.5601,0.56,0.565,0.5652,0.5654,0,0,0,0,0,0,0,0,0,0,0,0,0,0.5467,0.5468,0.5559,0.5559,0.556,0.5605,0.5606,0.5607,0.5603,0.5602,0.5601,0.56,0.565,0.5652,0.5654,0,0,0,0,0,0,0,0,0,0,0,0,0,0.5509,0.5469,0.5558,0.5563,0.5564,0.5605,0.5606,0.5607,0.5603,0.5602,0.5601,0.56,0.5649,0.5652,0.5655,0.5695,0,0,0.5664,0.5665,0,0,0,0,0,0,0,0,0.5507,0.5513,0.5562,0.5563,0.5564,0.5597,0.5592,0.5636,0.5603,0.5588,0.56,0.5599,0.5634,0.5638,0.5649,0.5697,0.5699,0.5664,0.5666,0.5667,0.5668,0,0,0,0,0,0,0,0.5504,0.5511,0.5577,0.5563,0.5564,0.5563,0.5568,0.56,0.5616,0.5589,0.5589,0.5595,0.5634,0.5646,0.565,0.57,0.5664,0.5667,0.5669,0.567,0.5782,0.5783,0,0,0,0,0,0,0.55,0.5508,0.5576,0.5579,0.5532,0.5566,0.5571,0.5588,0.5616,0.5619,0.5596,0.5594,0.5642,0.5647,0.5652,0.5699,0.5667,0.567,0.5672,0.5781,0.5782,0.5784,0,0,0,0,0,0,0.5498,0.5506,0.5574,0.5543,0.5552,0.5569,0.5587,0.5589,0.5601,0.5621,0.5624,0.5605,0.5641,0.5648,0.5684,0.5701,0.5671,0.5674,0.578,0.5781,0.5783,0.5795,0,0,0,0,0,0,0.5495,0.5505,0.552,0.5544,0.5554,0.5604,0.5588,0.5591,0.5606,0.5605,0.563,0.5633,0.5641,0.5679,0.5687,0.5704,0.5676,0.5778,0.578,0.5783,0.5793,0.5797,0.58,0,0,0,0,0,0.5492,0.5522,0.5521,0.5529,0.5573,0.5605,0.5611,0.5618,0.5607,0.5623,0.5635,0.5633,0.5698,0.5683,0.5691,0.571,0.5777,0.578,0.5782,0.5791,0.5796,0.58,0,0,0,0,0,0,0.5501,0.5526,0.5524,0.5563,0.5582,0.5605,0.5624,0.5623,0.5646,0.5644,0.5652,0.5658,0.5694,0.5706,0.5689,0.575,0.5736,0.5741,0.574,0.5745,0.5748,0.5744,0.5679,0,0,0,0,0,0.5508,0.5532,0.5552,0.5584,0.5594,0.5607,0.5622,0.5626,0.5646,0.5654,0.5669,0.5689,0.5714,0.5731,0.5755,0.5796,0.58,0.5813,0.5816,0.5819,0.5822,0.5843,0.5848,0.5793,0.5793,0.5792,0,0,0.5522,0.5538,0.5553,0.5587,0.5602,0.5626,0.5614,0.5641,0.5659,0.5658,0.5692,0.5705,0.5728,0.5766,0.5783,0.5777,0.5839,0.5822,0.5825,0.5826,0.5846,0.5852,0.5856,0.5794,0.5794,0.5794,0,0,0.5559,0.5574,0.5602,0.5617,0.5639,0.5648,0.5655,0.5678,0.5685,0.572,0.5719,0.5742,0.5785,0.5801,0.5815,0.5857,0.5855,0.5866,0.5883,0.5904,0.5908,0.5912,0.5925,0.593,0.5869,0.5869,0.5869,0,0.5573,0.5609,0.5616,0.5643,0.5657,0.5657,0.5685,0.57,0.573,0.574,0.5733,0.5786,0.5802,0.5843,0.5853,0.5865,0.5872,0.5862,0.5907,0.5911,0.5914,0.5927,0.5933,0.587,0.587,0.587,0.587,0,0.5625,0.565,0.567,0.5697,0.5714,0.5742,0.5753,0.577,0.5772,0.5782,0.5817,0.5836,0.5863,0.5873,0.5877,0.5915,0.591,0.5905,0.5891,0.592,0.5933,0.5938,0.5871,0.5871,0.5871,0.587,0,0,0.5668,0.5698,0.5705,0.5717,0.5742,0.5762,0.5789,0.5815,0.5829,0.585,0.5872,0.5909,0.5904,0.5919,0.5925,0.5943,0.5973,0.5935,0.5936,0.594,0.6015,0.6017,0.6023,0.5973,0.5974,0.5975,0.6012,0,0.5705,0.5752,0.5759,0.5801,0.5824,0.5824,0.5848,0.5866,0.5876,0.5897,0.5909,0.5933,0.5926,0.5935,0.5953,0.5966,0.5988,0.5964,0.5993,0.5994,0.5985,0.6029,0.6032,0.6066,0.6017,0.6018,0.6019,0,0.5755,0.5776,0.5819,0.584,0.585,0.5871,0.5895,0.5915,0.5936,0.5942,0.5959,0.5962,0.5991,0.5977,0.6016,0.5999,0.6012,0.602,0.6022,0.6023,0.6007,0.603,0.6077,0.6081,0.6027,0.6026,0.6025,0,0.578,0.5819,0.5849,0.586,0.5885,0.59,0.5911,0.5931,0.5946,0.5967,0.5977,0.6002,0.6015,0.6035,0.6044,0.6034,0.6082,0.6069,0.6087,0.6087,0.6095,0.6094,0.6143,0.6107,0.6107,0.6107,0.6107,0,0.582,0.5846,0.586,0.5879,0.5908,0.5916,0.5945,0.5956,0.5974,0.5995,0.5998,0.6018,0.603,0.6052,0.606,0.609,0.6097,0.6102,0.6103,0.61,0.6099,0.6107,0.6105,0.6109,0.6108,0.6108,0.6108,0,0.5851,0.5862,0.5895,0.5916,0.5922,0.5942,0.5961,0.5979,0.5989,0.6015,0.6022,0.6038,0.6064,0.6076,0.6108,0.6114,0.6147,0.6148,0.614,0.614,0.6156,0.6153,0.621,0.6217,0.6178,0.6179,0.6179,0,0.5875,0.5894,0.5917,0.5931,0.5942,0.5965,0.598,0.5989,0.6005,0.6029,0.6045,0.607,0.6091,0.6132,0.6147,0.6171,0.6171,0.619,0.6175,0.6171,0.6169,0.6167,0.6169,0.6192,0.6192,0.6192,0.6193,0,0.5915,0.5919,0.594,0.5962,0.598,0.5998,0.6016,0.6028,0.604,0.6058,0.6083,0.6099,0.6131,0.6156,0.6182,0.6194,0.6195,0.6197,0.6202,0.6198,0.6192,0.6194,0.6144,0.6195,0.6195,0.6195,0.6195,0.6195,0.5942,0.5959,0.5977,0.6,0.6014,0.6031,0.6049,0.6061,0.6082,0.6108,0.6113,0.614,0.616,0.6194,0.6208,0.6229,0.6225,0.6233,0.6234,0.6235,0.6235,0.619,0.6234,0.6234,0.6234,0.6234,0.6234,0,0.598,0.5992,0.6013,0.6038,0.6056,0.6055,0.6075,0.609,0.6113,0.6132,0.6152,0.6181,0.6205,0.6222,0.6247,0.6261,0.6262,0.6267,0.6265,0.6267,0.6239,0.6231,0.6265,0.6265,0.6265,0.6265,0.6265,0.6265,0.6002,0.603,0.6037,0.6072,0.6084,0.611,0.6121,0.6137,0.6151,0.6183,0.6203,0.6213,0.6231,0.6257,0.6279,0.6284,0.6292,0.6296,0.6301,0.6273,0.6269,0.6266,0.6259,0.6299,0.6299,0.6327,0.6328,0.6328]}]]